[[{"header":{"parameterUnit":"m.s-1","parameterCategory":1,"la1":30.2991,"la2":30.254,"lo1":-89.0895,"lo2":-89.0444,"dy":0.0017,"dx":0.0017,"nx":28,"ny":28,"refTime":"2024-12-08T03:00:00:Z","depth":0,"parameterNumber":2,"parameterNumberName":"U-component_of_WINDS"},"data":[0,0,0,0,0,0,0,0,0,0,0,0,0,0,0,0,0,0,0,0,0,0,0,0,0,0,0,0,0,0,0,0,0,0,0,0,0,0,0,0,0,0,0,0,0,0,0,0,0,0,0,0,0,0,0,0,0,0,-3.75,-3.75,0,-3.75,-3.75,-3.75,-3.7411,-3.7409,-3.7407,-3.7405,-3.7404,-3.7406,-3.7408,0,0,0,0,0,0,0,0,0,0,0,0,0,-3.7423,-3.7424,-3.75,-3.75,-3.75,-3.75,-3.75,-3.75,-3.7412,-3.7409,-3.7406,-3.7403,-3.7403,-3.7405,-3.7408,0,0,0,0,0,0,0,0,0,0,0,0,0,-3.7443,-3.7425,-3.75,-3.7456,-3.7452,-3.75,-3.75,-3.75,-3.7412,-3.7409,-3.7405,-3.7402,-3.7402,-3.7405,-3.7408,-3.7498,0,0,-3.7418,-3.742,0,0,0,0,0,0,0,0,-3.7442,-3.7446,-3.7462,-3.7459,-3.7455,-3.7452,-3.7472,-3.75,-3.7413,-3.7427,-3.7404,-3.74,-3.7423,-3.7424,-3.7432,-3.7498,-3.7498,-3.7419,-3.742,-3.7422,-3.7423,0,0,0,0,0,0,0,-3.7441,-3.7445,-3.75,-3.7463,-3.7458,-3.7436,-3.7435,-3.7477,-3.7445,-3.7426,-3.742,-3.7421,-3.742,-3.7429,-3.7431,-3.7498,-3.7418,-3.7421,-3.7423,-3.7425,-3.7638,-3.7641,0,0,0,0,0,0,-3.7445,-3.7445,-3.75,-3.75,-3.744,-3.744,-3.7439,-3.7457,-3.7444,-3.7439,-3.7424,-3.7417,-3.7425,-3.7427,-3.743,-3.7533,-3.7422,-3.7425,-3.7427,-3.7634,-3.7638,-3.7642,0,0,0,0,0,0,-3.7444,-3.7451,-3.75,-3.7471,-3.7475,-3.7445,-3.7466,-3.7458,-3.7467,-3.7442,-3.7436,-3.7439,-3.7422,-3.7426,-3.7482,-3.7532,-3.7426,-3.7429,-3.763,-3.7635,-3.764,-3.774,0,0,0,0,0,0,-3.7442,-3.7451,-3.7485,-3.7472,-3.7477,-3.7552,-3.7469,-3.7461,-3.7473,-3.7464,-3.7455,-3.745,-3.742,-3.7478,-3.7485,-3.7534,-3.7432,-3.7625,-3.7632,-3.7639,-3.7732,-3.7748,-3.7762,0,0,0,0,0,-3.744,-3.7513,-3.7487,-3.7494,-3.7519,-3.7555,-3.7557,-3.7522,-3.7478,-3.7511,-3.7495,-3.745,-3.7526,-3.7484,-3.7492,-3.7543,-3.7621,-3.763,-3.7638,-3.7725,-3.7745,-3.7762,0,0,0,0,0,0,-3.7531,-3.751,-3.7481,-3.7553,-3.7556,-3.754,-3.758,-3.7544,-3.756,-3.755,-3.7505,-3.7504,-3.7567,-3.7561,-3.7514,-3.7629,-3.7566,-3.7576,-3.7629,-3.7648,-3.7663,-3.7661,-3.7434,0,0,0,0,0,-3.756,-3.7591,-3.7571,-3.7636,-3.764,-3.7611,-3.7625,-3.7597,-3.7599,-3.7599,-3.7588,-3.7591,-3.7615,-3.7632,-3.7653,-3.7732,-3.7728,-3.7771,-3.7787,-3.7799,-3.7807,-3.7847,-3.7865,-3.767,-3.767,-3.767,0,0,-3.7619,-3.7612,-3.7634,-3.7654,-3.7654,-3.7686,-3.7612,-3.765,-3.7673,-3.7605,-3.7656,-3.7649,-3.7649,-3.7717,-3.7746,-3.7713,-3.7861,-3.781,-3.782,-3.7821,-3.7857,-3.7876,-3.7892,-3.7676,-3.7675,-3.7674,0,0,-3.7742,-3.7741,-3.7794,-3.7796,-3.7796,-3.7776,-3.779,-3.7779,-3.7771,-3.7823,-3.7772,-3.78,-3.7843,-3.7845,-3.7852,-3.7979,-3.7937,-3.7988,-3.8065,-3.8104,-3.8119,-3.8133,-3.8175,-3.8191,-3.7997,-3.7997,-3.7997,0,-3.7815,-3.7862,-3.7826,-3.7867,-3.7877,-3.7819,-3.7871,-3.7875,-3.7882,-3.789,-3.7855,-3.7908,-3.7905,-3.7971,-3.8002,-3.8011,-3.8023,-3.7986,-3.812,-3.8133,-3.8145,-3.8185,-3.8202,-3.8003,-3.8002,-3.8002,-3.8001,0,-3.7951,-3.7985,-3.8028,-3.8036,-3.8052,-3.8099,-3.8069,-3.809,-3.8062,-3.8046,-3.8099,-3.8093,-3.8112,-3.8127,-3.81,-3.8189,-3.8169,-3.8128,-3.8063,-3.817,-3.8207,-3.8222,-3.8011,-3.8009,-3.8007,-3.8006,0,0,-3.8127,-3.8117,-3.8133,-3.8136,-3.8134,-3.8159,-3.8205,-3.8223,-3.824,-3.8249,-3.8284,-3.8323,-3.8285,-3.8293,-3.8267,-3.8302,-3.84,-3.8256,-3.8255,-3.828,-3.8496,-3.8524,-3.8542,-3.8375,-3.8378,-3.838,-3.8495,0,-3.8244,-3.8319,-3.8288,-3.8366,-3.8396,-3.8343,-3.8382,-3.8385,-3.8372,-3.8396,-3.8382,-3.8409,-3.8359,-3.8363,-3.8396,-3.8381,-3.8442,-3.8373,-3.8405,-3.8406,-3.8402,-3.8562,-3.8591,-3.87,-3.8509,-3.8512,-3.8514,0,-3.8389,-3.8403,-3.8484,-3.8477,-3.8488,-3.8524,-3.8538,-3.8563,-3.8565,-3.8553,-3.8564,-3.8529,-3.8572,-3.8512,-3.857,-3.8523,-3.8535,-3.8531,-3.8534,-3.8532,-3.8463,-3.8561,-3.8734,-3.8749,-3.8536,-3.8535,-3.8533,0,-3.8505,-3.8546,-3.8599,-3.8604,-3.8597,-3.8623,-3.8622,-3.8621,-3.8634,-3.8648,-3.8656,-3.8675,-3.8684,-3.8699,-3.8671,-3.863,-3.8732,-3.8669,-3.8722,-3.8722,-3.8742,-3.874,-3.8915,-3.8757,-3.8757,-3.8756,-3.8756,0,-3.8636,-3.8687,-3.8651,-3.8683,-3.8738,-3.8704,-3.876,-3.8752,-3.8753,-3.8782,-3.8739,-3.8767,-3.8731,-3.8756,-3.8735,-3.8784,-3.879,-3.8781,-3.8773,-3.8782,-3.8783,-3.8786,-3.8776,-3.8761,-3.876,-3.8759,-3.8758,0,-3.8773,-3.8752,-3.8805,-3.8796,-3.8795,-3.8836,-3.8827,-3.8856,-3.8843,-3.888,-3.8887,-3.8865,-3.8892,-3.8867,-3.8894,-3.8879,-3.8945,-3.8929,-3.8944,-3.8938,-3.899,-3.8984,-3.917,-3.9192,-3.9023,-3.9025,-3.9026,0,-3.8856,-3.8893,-3.8889,-3.8906,-3.8907,-3.8935,-3.8949,-3.8918,-3.8934,-3.894,-3.8969,-3.8993,-3.9009,-3.9056,-3.9042,-3.9062,-3.9043,-3.9108,-3.9046,-3.9053,-3.904,-3.9036,-3.9039,-3.9118,-3.912,-3.9122,-3.9123,0,-3.9004,-3.8992,-3.9013,-3.9032,-3.905,-3.9062,-3.9072,-3.9088,-3.9057,-3.9077,-3.9105,-3.9118,-3.9146,-3.9169,-3.9185,-3.9183,-3.9147,-3.9144,-3.9156,-3.9163,-3.9168,-3.9163,-3.8973,-3.9138,-3.9137,-3.9136,-3.9135,-3.9134,-3.9113,-3.9144,-3.9145,-3.9171,-3.9175,-3.9186,-3.9212,-3.9202,-3.9225,-3.9245,-3.9226,-3.9259,-3.9262,-3.9279,-3.9282,-3.9307,-3.928,-3.9299,-3.9303,-3.9307,-3.9313,-3.9169,-3.9311,-3.931,-3.931,-3.9309,-3.9309,0,-3.9255,-3.9254,-3.9279,-3.9294,-3.9314,-3.9282,-3.9291,-3.931,-3.934,-3.9346,-3.9364,-3.9396,-3.9419,-3.9408,-3.9429,-3.9451,-3.9435,-3.9457,-3.9453,-3.9452,-3.9338,-3.9323,-3.9469,-3.9469,-3.9469,-3.9469,-3.9469,-3.9469,-3.9331,-3.9381,-3.937,-3.9421,-3.942,-3.9452,-3.946,-3.9469,-3.9474,-3.9511,-3.9531,-3.9524,-3.9523,-3.9543,-3.9563,-3.956,-3.9567,-3.9594,-3.9584,-3.9477,-3.9461,-3.9445,-3.9431,-3.9598,-3.9598,-3.9696,-3.9697,-3.9698]},{"header":{"parameterUnit":"m.s-1","parameterCategory":1,"la1":30.2991,"la2":30.254,"lo1":-89.0895,"lo2":-89.0444,"dy":0.0017,"dx":0.0017,"nx":28,"ny":28,"refTime":"2024-12-08T03:00:00:Z","depth":0,"parameterNumber":3,"parameterNumberName":"V-component_of_WINDS"},"data":[0,0,0,0,0,0,0,0,0,0,0,0,0,0,0,0,0,0,0,0,0,0,0,0,0,0,0,0,0,0,0,0,0,0,0,0,0,0,0,0,0,0,0,0,0,0,0,0,0,0,0,0,0,0,0,0,0,0,1.0198,1.0198,0,1.0221,1.0221,1.0221,1.0188,1.0187,1.0186,1.0184,1.0208,1.021,1.0211,0,0,0,0,0,0,0,0,0,0,0,0,0,1.0127,1.0129,1.0198,1.0198,1.0199,1.0221,1.0221,1.0221,1.0188,1.0187,1.0185,1.0184,1.0207,1.0209,1.0211,0,0,0,0,0,0,0,0,0,0,0,0,0,1.0155,1.0129,1.0198,1.0185,1.0184,1.0221,1.0221,1.0221,1.0188,1.0187,1.0185,1.0183,1.0207,1.0209,1.0212,1.0263,0,0,1.022,1.0221,0,0,0,0,0,0,0,0,1.0153,1.0157,1.0186,1.0186,1.0185,1.02,1.0205,1.0235,1.0189,1.0187,1.0184,1.0182,1.0207,1.0209,1.0217,1.0264,1.0265,1.022,1.0221,1.0222,1.0223,0,0,0,0,0,0,0,1.0151,1.0156,1.0207,1.0187,1.0186,1.0178,1.018,1.021,1.0206,1.0187,1.0184,1.0187,1.0206,1.0215,1.0218,1.0265,1.022,1.0222,1.0224,1.0225,1.0358,1.036,0,0,0,0,0,0,1.0151,1.0155,1.0206,1.0208,1.0164,1.0181,1.0183,1.0197,1.0206,1.0205,1.0189,1.0186,1.0211,1.0215,1.0218,1.0281,1.0222,1.0225,1.0226,1.0356,1.0359,1.0361,0,0,0,0,0,0,1.015,1.0156,1.0205,1.0181,1.0186,1.0184,1.0199,1.0198,1.0207,1.0208,1.0207,1.0199,1.021,1.0215,1.0253,1.0281,1.0226,1.0228,1.0354,1.0357,1.036,1.0406,0,0,0,0,0,0,1.0148,1.0156,1.0174,1.0181,1.0188,1.0239,1.0201,1.02,1.0212,1.0208,1.0217,1.0216,1.0209,1.0249,1.0255,1.0284,1.023,1.0351,1.0355,1.0359,1.0402,1.041,1.0417,0,0,0,0,0,1.0145,1.0186,1.0176,1.0182,1.0211,1.0241,1.0244,1.0235,1.0214,1.0234,1.0234,1.0216,1.0277,1.0253,1.026,1.029,1.035,1.0354,1.0359,1.0398,1.0409,1.0417,0,0,0,0,0,0,1.0182,1.0186,1.0175,1.0219,1.023,1.0235,1.0259,1.0246,1.0263,1.0258,1.0246,1.0248,1.029,1.0293,1.0267,1.0341,1.031,1.0316,1.0338,1.0347,1.0355,1.0354,1.0233,0,0,0,0,0,1.0195,1.0218,1.0221,1.0259,1.0265,1.0262,1.0274,1.0266,1.0277,1.0281,1.0284,1.0296,1.0318,1.0332,1.0352,1.0402,1.0405,1.0426,1.0433,1.044,1.0446,1.0475,1.0485,1.0376,1.0376,1.0376,0,0,1.0222,1.0228,1.0243,1.0267,1.0274,1.03,1.0266,1.0293,1.0312,1.0285,1.0322,1.0325,1.0337,1.0382,1.0402,1.0386,1.0477,1.0445,1.0451,1.0453,1.0481,1.0491,1.05,1.0379,1.0378,1.0378,0,0,1.0286,1.0291,1.0325,1.0334,1.0346,1.0343,1.0352,1.036,1.0361,1.0398,1.0379,1.0402,1.0439,1.0449,1.0459,1.0529,1.0514,1.0536,1.0576,1.0605,1.0614,1.0622,1.0649,1.0659,1.0541,1.0541,1.0541,0,1.0318,1.0355,1.0344,1.0374,1.0386,1.0364,1.0399,1.0408,1.0426,1.0435,1.0417,1.0466,1.0472,1.052,1.0538,1.0545,1.0556,1.0535,1.0613,1.0621,1.0628,1.0654,1.0664,1.0544,1.0544,1.0544,1.0543,0,1.0396,1.0422,1.0448,1.0468,1.0483,1.0515,1.051,1.0526,1.0518,1.0517,1.0557,1.0564,1.0586,1.0596,1.0587,1.0644,1.0635,1.0615,1.0584,1.0641,1.0666,1.0676,1.0548,1.0547,1.0546,1.0546,0,0,1.0483,1.0497,1.0507,1.0517,1.0529,1.055,1.0582,1.0604,1.062,1.0633,1.0662,1.0695,1.0678,1.0689,1.0681,1.0706,1.0765,1.0684,1.0684,1.0701,1.0831,1.0847,1.0859,1.0754,1.0756,1.0757,1.0831,0,1.0548,1.0604,1.0596,1.0651,1.0676,1.0656,1.0684,1.0696,1.0697,1.0719,1.072,1.0745,1.0719,1.0726,1.075,1.0752,1.0791,1.0747,1.0782,1.0783,1.0782,1.0871,1.0888,1.0957,1.084,1.0842,1.0843,0,1.0632,1.065,1.0707,1.0718,1.0729,1.0754,1.0776,1.0797,1.081,1.0809,1.0824,1.0812,1.0846,1.0812,1.086,1.083,1.0844,1.0848,1.085,1.0855,1.0818,1.0881,1.0979,1.099,1.0857,1.0856,1.0855,0,1.0693,1.0731,1.0771,1.078,1.0793,1.0812,1.0819,1.083,1.0845,1.0864,1.0874,1.0895,1.0908,1.0926,1.0921,1.0897,1.0971,1.0936,1.0973,1.0973,1.099,1.099,1.1095,1.0996,1.0995,1.0995,1.0995,0,1.0768,1.0804,1.0799,1.0824,1.0865,1.0856,1.0897,1.0901,1.0912,1.0938,1.0921,1.0946,1.0937,1.0962,1.0958,1.1,1.1005,1.1006,1.1005,1.1009,1.1009,1.102,1.1016,1.0998,1.0997,1.0997,1.0996,0,1.0843,1.0841,1.0884,1.0894,1.0897,1.0927,1.0936,1.096,1.096,1.0994,1.1001,1.1001,1.103,1.1027,1.1058,1.1056,1.1109,1.11,1.1105,1.1104,1.1141,1.1139,1.1258,1.1274,1.1162,1.1163,1.1164,0,1.0892,1.092,1.0934,1.0951,1.0959,1.0985,1.1001,1.0993,1.1011,1.1029,1.1052,1.1079,1.1101,1.1148,1.1151,1.1176,1.117,1.121,1.1174,1.1178,1.1174,1.1174,1.1178,1.1218,1.1219,1.122,1.1221,0,1.0981,1.0979,1.1002,1.1026,1.1046,1.1064,1.108,1.1095,1.1089,1.1109,1.1139,1.1156,1.1189,1.1217,1.1241,1.1248,1.1235,1.1232,1.1243,1.1248,1.1251,1.1253,1.1127,1.123,1.1229,1.1228,1.1228,1.1228,1.1047,1.1072,1.1086,1.1113,1.1125,1.1141,1.1166,1.1169,1.1194,1.1221,1.1215,1.1249,1.1264,1.1295,1.1305,1.1332,1.1318,1.1332,1.1336,1.134,1.1346,1.1244,1.1336,1.1336,1.1335,1.1335,1.1335,0,1.1137,1.1145,1.1171,1.1195,1.1217,1.1202,1.122,1.124,1.127,1.1285,1.1307,1.1343,1.1371,1.1377,1.1404,1.1425,1.1419,1.1432,1.1432,1.1435,1.1356,1.1346,1.1436,1.1436,1.1436,1.1436,1.1436,1.1436,1.1187,1.1229,1.1229,1.1279,1.1287,1.1321,1.1333,1.1349,1.1361,1.1401,1.1425,1.1429,1.1441,1.1469,1.1495,1.1496,1.1508,1.1524,1.1523,1.145,1.144,1.143,1.1421,1.1526,1.1526,1.16,1.1601,1.1601]}]]